This is the latest recevied weather packets stored in our database for station/object ON7AMI-5. If no packets are shown the sender has not sent any weather packets the latest 1 day(s).
| Time | Temp. | Humidity | Pressure | Rain* | Wind** | Luminosity | Snow |
|---|---|---|---|---|---|---|---|
| 1778067036 | 13.89° C | 94% | 1011 hPa | 0 mm | - | - | - |
| 1778066736 | 13.89° C | 94% | 1011 hPa | 0 mm | - | - | - |
| 1778065536 | 13.89° C | 95% | 1011.1 hPa | 0 mm | - | - | - |
| 1778064335 | 13.33° C | 95% | 1011 hPa | 0 mm | - | - | - |
| 1778063440 | 12.78° C | 95% | 1011.1 hPa | 0 mm | - | - | - |
| 1778063135 | 12.78° C | 95% | 1011.3 hPa | 0 mm | - | - | - |
| 1778062836 | 12.78° C | 95% | 1011.2 hPa | 0 mm | - | - | - |
| 1778061936 | 11.67° C | 96% | 1011 hPa | 0 mm | - | - | - |
| 1778060436 | 11.11° C | 96% | 1010.9 hPa | 0 mm | - | - | - |
| 1778060135 | 11.11° C | 96% | 1010.9 hPa | 0 mm | - | - | - |
| 1778059845 | 10.56° C | 96% | 1010.8 hPa | 0 mm | - | - | - |
| 1778059535 | 10.56° C | 95% | 1010.9 hPa | 0 mm | - | - | - |
| 1778059236 | 10.56° C | 95% | 1011 hPa | 0 mm | - | - | - |
| 1778058036 | 10° C | 95% | 1010.8 hPa | 0.25 mm | - | - | - |
| 1778057729 | 10° C | 95% | 1010.8 hPa | 0.25 mm | - | - | - |
| 1778057440 | 10° C | 95% | 1010.8 hPa | 0.25 mm | - | - | - |
| 1778057135 | 10° C | 95% | 1010.8 hPa | 0 mm | - | - | - |
| 1778056835 | 9.44° C | 95% | 1010.8 hPa | 0 mm | - | - | - |
| 1778056535 | 9.44° C | 95% | 1010.7 hPa | 0 mm | - | - | - |
| 1778056236 | 9.44° C | 94% | 1010.7 hPa | 0 mm | - | - | - |
| 1778055929 | 9.44° C | 94% | 1010.6 hPa | 0 mm | - | - | - |
| 1778055635 | 9.44° C | 94% | 1010.6 hPa | 0 mm | - | - | - |
| 1778054736 | 10° C | 94% | 1010.6 hPa | 0 mm | - | - | - |
| 1778054435 | 9.44° C | 94% | 1010.5 hPa | 0 mm | - | - | - |
| 1778054135 | 10° C | 94% | 1010.5 hPa | 0 mm | - | - | - |
* Rain latest hour (hover to see other rain measurements)
** Current wind speed in m/s (hover to see current wind gust speed)